Date String (YYYY-MM-DD hh:mm:ss) UTC,Instrument flags,Ambient pressure (hPa),Sample flow (lpm),Bypass flow (lpm),Sample temperature (°C),Ambient temperature (°C),ASC tube jacket temperature (°C),LED temperature (°C),Box temperature (°C),Sample RH (%),Span deviation,Mass concentration (μg/m³),Mass concentration (μg/m³),Mass concentration (μg/m³)
DateTimeUTC,F1_M11,P_M11,Q1_M11,Q2_M11,T1_M11,T2_M11,T3_M11,T4_M11,T5_M11,U1_M11,ZSPAN_M11,X2_M11,X0_M11,X1_M11
2023-01-03 20:00:00,,0817.0,5.01,0.00,22.4,22.8,00.0,31.0,24.4,12.7,0000.0,0004.01,0008.48,0003.75
2023-01-03 20:01:00,,0816.9,4.97,0.00,22.4,22.5,00.0,31.0,24.4,12.6,0000.0,0003.98,0008.47,0003.71
2023-01-03 20:02:00,,0816.9,4.98,0.00,22.4,22.2,00.0,31.1,24.3,12.5,0000.0,0003.90,0008.32,0003.67
2023-01-03 20:03:00,,0817.0,5.03,0.00,22.4,21.9,00.0,31.1,24.3,12.5,0000.0,0003.86,0007.98,0003.64
2023-01-03 20:04:00,,0817.2,5.00,0.00,22.4,21.7,00.0,31.1,24.3,12.5,0000.0,0003.84,0007.27,0003.61
2023-01-03 20:05:00,,0817.0,4.99,0.00,22.4,21.5,00.0,31.1,24.2,12.5,0000.0,0003.77,0006.85,0003.57
2023-01-03 20:06:00,,0816.9,4.96,0.00,22.4,21.3,00.0,31.2,24.2,12.5,0000.0,0003.74,0006.86,0003.53
2023-01-03 20:07:00,,0816.9,5.01,0.00,22.4,21.1,00.0,31.2,24.1,12.5,0000.0,0003.72,0007.53,0003.52
2023-01-03 20:08:00,,0817.0,5.06,0.00,22.4,21.0,00.0,31.2,24.1,12.5,0000.0,0003.65,0006.97,0003.47
2023-01-03 20:09:00,,0816.9,4.98,0.00,22.3,21.0,00.0,31.2,24.0,12.5,0000.0,0003.59,0006.21,0003.41
2023-01-03 20:10:00,,0817.1,4.98,0.00,22.3,21.0,00.0,31.2,24.1,12.5,0000.0,0003.56,0006.16,0003.37
2023-01-03 20:11:00,,0817.2,5.03,0.00,22.3,21.0,00.0,31.2,24.1,12.5,0000.0,0003.54,0006.13,0003.35
2023-01-03 20:12:00,,0817.0,5.06,0.00,22.3,21.0,00.0,31.2,24.1,12.5,0000.0,0003.49,0005.98,0003.32
2023-01-03 20:13:00,,0816.9,4.97,0.00,22.3,21.0,00.0,31.2,24.1,12.6,0000.0,0003.50,0005.97,0003.31
2023-01-03 20:14:00,,0816.8,4.98,0.00,22.3,20.9,00.0,31.2,24.1,12.6,0000.0,0003.48,0005.95,0003.29
2023-01-03 20:15:00,,0816.7,5.08,0.00,22.3,20.8,00.0,31.2,24.0,12.6,0000.0,0003.47,0005.93,0003.28
2023-01-03 20:16:00,,0816.9,5.00,0.00,22.3,20.8,00.0,31.1,24.0,12.6,0000.0,0003.52,0006.16,0003.30
2023-01-03 20:17:00,,0816.9,4.97,0.00,22.3,20.8,00.0,31.1,24.0,12.6,0000.0,0003.52,0006.17,0003.31
2023-01-03 20:18:00,,0816.9,5.09,0.00,22.3,20.8,00.0,31.1,24.0,12.7,0000.0,0003.52,0005.46,0003.32
2023-01-03 20:19:00,,0816.8,4.98,0.00,22.3,20.8,00.0,31.1,24.0,12.7,0000.0,0003.55,0005.26,0003.35
2023-01-03 20:20:00,,0816.9,4.96,0.00,22.2,20.8,00.0,31.1,24.0,12.7,0000.0,0003.58,0005.26,0003.39
2023-01-03 20:21:00,,0816.8,5.06,0.00,22.2,20.8,00.0,31.1,24.0,12.7,0000.0,0003.59,0005.29,0003.41
2023-01-03 20:22:00,,0816.7,5.02,0.00,22.2,20.7,00.0,31.1,23.9,12.7,0000.0,0003.57,0005.17,0003.41
2023-01-03 20:23:00,,0817.0,4.96,0.00,22.2,20.6,00.0,31.1,23.8,12.7,0000.0,0003.60,0005.26,0003.43
2023-01-03 20:24:00,,0817.0,4.96,0.00,22.2,20.4,00.0,31.1,23.8,12.7,0000.0,0003.61,0005.33,0003.44
2023-01-03 20:25:00,,0817.1,5.05,0.00,22.1,20.3,00.0,31.0,23.7,12.7,0000.0,0003.60,0005.30,0003.45
2023-01-03 20:26:00,,0817.0,4.97,0.00,22.1,20.2,00.0,31.0,23.6,12.7,0000.0,0003.61,0005.30,0003.45
2023-01-03 20:27:00,,0816.9,5.02,0.00,22.0,20.2,00.0,31.0,23.6,12.8,0000.0,0003.61,0005.25,0003.45
2023-01-03 20:28:00,,0816.8,5.00,0.00,22.0,20.3,00.0,31.0,23.6,12.8,0000.0,0003.62,0005.31,0003.44
2023-01-03 20:29:00,,0816.8,4.99,0.00,22.0,20.3,00.0,31.0,23.6,12.8,0000.0,0003.61,0005.36,0003.43
2023-01-03 20:30:00,,0816.8,5.00,0.00,22.0,20.3,00.0,30.9,23.6,12.9,0000.0,0003.61,0005.38,0003.42
2023-01-03 20:31:00,,0816.8,5.01,0.00,22.0,20.4,00.0,30.9,23.6,12.9,0000.0,0003.63,0005.61,0003.42
2023-01-03 20:32:00,,0816.8,4.99,0.00,21.9,20.4,00.0,30.9,23.6,12.9,0000.0,0003.66,0005.64,0003.45
2023-01-03 20:33:00,,0816.9,5.00,0.00,21.9,20.4,00.0,30.9,23.6,12.9,0000.0,0003.70,0005.75,0003.48
2023-01-03 20:34:00,,0816.9,5.00,0.00,21.9,20.4,00.0,30.9,23.6,12.9,0000.0,0003.70,0005.71,0003.48
2023-01-03 20:35:00,,0816.9,4.99,0.00,21.9,20.4,00.0,30.9,23.6,13.0,0000.0,0003.70,0005.61,0003.49
2023-01-03 20:36:00,,0816.8,5.01,0.00,22.0,21.1,00.0,30.8,23.8,12.9,0000.0,0003.74,0005.72,0003.51
2023-01-03 20:37:00,,0817.1,5.01,0.00,22.1,22.1,00.0,30.8,24.1,12.8,0000.0,0003.78,0006.00,0003.54
2023-01-03 20:38:00,,0817.2,4.99,0.00,22.2,22.9,00.0,30.8,24.3,12.8,0000.0,0003.78,0006.00,0003.56
2023-01-03 20:39:00,,0817.3,5.02,0.00,22.3,22.7,00.0,30.9,24.4,12.7,0000.0,0003.81,0006.09,0003.60
2023-01-03 20:40:00,,0817.1,4.99,0.00,22.3,22.3,00.0,31.0,24.3,12.7,0000.0,0003.84,0006.86,0003.63
2023-01-03 20:41:00,,0816.9,4.98,0.00,22.3,21.9,00.0,31.0,24.2,12.7,0000.0,0003.89,0007.37,0003.68
2023-01-03 20:42:00,,0816.8,5.00,0.00,22.3,21.6,00.0,31.0,24.2,12.7,0000.0,0003.91,0007.24,0003.72
2023-01-03 20:43:00,,0816.9,5.09,0.00,22.3,21.4,00.0,31.1,24.1,12.7,0000.0,0003.97,0007.38,0003.77
2023-01-03 20:44:00,,0816.9,4.99,0.00,22.3,21.3,00.0,31.1,24.1,12.7,0000.0,0004.03,0007.45,0003.83
2023-01-03 20:45:00,,0816.8,4.97,0.00,22.3,21.2,00.0,31.1,24.1,12.7,0000.0,0004.08,0007.64,0003.88
2023-01-03 20:46:00,,0817.0,4.97,0.00,22.3,21.1,00.0,31.1,24.1,12.7,0000.0,0004.14,0008.87,0003.94
2023-01-03 20:47:00,,0817.0,5.00,0.00,22.3,21.0,00.0,31.1,24.1,12.7,0000.0,0004.23,0009.20,0004.02
2023-01-03 20:48:00,,0816.9,5.03,0.00,22.3,21.1,00.0,31.1,24.1,12.7,0000.0,0004.28,0009.14,0004.07
2023-01-03 20:49:00,,0817.0,5.01,0.00,22.3,21.1,00.0,31.1,24.1,12.7,0000.0,0004.33,0009.13,0004.11
2023-01-03 20:50:00,,0816.8,4.96,0.00,22.3,21.1,00.0,31.1,24.1,12.7,0000.0,0004.36,0009.12,0004.14
2023-01-03 20:51:00,,0816.9,5.03,0.00,22.3,21.1,00.0,31.1,24.1,12.7,0000.0,0004.36,0008.77,0004.14
2023-01-03 20:52:00,,0816.8,5.00,0.00,22.3,20.9,00.0,31.1,24.0,12.7,0000.0,0004.32,0008.36,0004.12
2023-01-03 20:53:00,,0816.8,5.01,0.00,22.3,20.9,00.0,31.1,24.0,12.7,0000.0,0004.30,0008.36,0004.10
2023-01-03 20:54:00,,0817.3,4.98,0.00,22.3,20.9,00.0,31.1,24.0,12.7,0000.0,0004.27,0008.31,0004.08
2023-01-03 20:55:00,,0817.2,4.98,0.00,22.3,20.9,00.0,31.1,24.0,12.7,0000.0,0004.25,0008.29,0004.07
2023-01-03 20:56:00,,0817.3,5.02,0.00,22.3,20.9,00.0,31.1,24.0,12.9,0000.0,0004.30,0008.34,0004.12
2023-01-03 20:57:00,,0816.9,5.01,0.00,22.3,20.9,00.0,31.1,24.0,12.9,0000.0,0004.38,0007.18,0004.18
2023-01-03 20:58:00,,0816.8,4.98,0.00,22.3,21.0,00.0,31.1,24.0,12.8,0000.0,0004.39,0006.73,0004.21
2023-01-03 20:59:00,,0816.8,5.06,0.00,22.3,21.0,00.0,31.1,24.0,12.8,0000.0,0004.40,0006.72,0004.24
